User: anonymous   Login
Location: Campavaglio
(41.1333°N, 9.2333°E)
Time: 13:21:34
(UTC+00:00)
Language:

Cosmos 2237 - Orbit

View from above orbital plane
View from above orbital plane
View from above satellite
View from above satellite

Ground track
Ground track

The orbit data is extracted from the following two-line orbital elements,

1 22565U 93016A   21125.91889499 -.00000040  00000-0  45726-5 0  9991
2 22565  70.8477 297.1092 0006906 181.9394 178.1701 14.12514487449549
Epoch (UTC): 05 May 2021 22:03:12
Eccentricity: 0.0006906
inclination: 70.8477°
perigee height: 846 km
apogee height: 856 km
right ascension of ascending node: 297.1092°
argument of perigee: 181.9394°
revolutions per day: 14.12514487
mean anomaly at epoch: 178.1701°
orbit number at epoch: 44954

The dashed part of the orbit path shows where the satellite is in the earth's shadow,  

DLR